TOURFACTS.DK  
Stats and Facts from Tour de France.

Tour de France 2019 starts in 320 days
  Riders   Stages   Teams   Summits   Yearly  


 
Search by year

After 2018 - Stage 21:
 15000 starters.
  5165 different riders.
  638 teams.
  2253 stages.
  456 restdays.
  442940.60 km.
  5684 abandonnees.


Top 3
GC
Geraint Thomas83:17:13
Tom Dumoulin83:19:04
Christopher Froome83:19:37
Climb
Julian Alaphilippe170 pt.
Warren Barguil91 pt.
Rafal Majka76 pt.
Sprint
Peter Sagan477 pt.
Alexander Kristoff246 pt.
Arnaud Démare203 pt.
Youth
Pierre-Roger Latou..83:39:26
Egan Bernal83:45:05
Guillaume Martin84:01:31
Facts from Tour de France 2015
  |   Stages.  |   Stage winners.  |   Days in yellow  |   Average speed.  |   Route.  |   Teams.  |   All riders.  |   Rookies.  |  

  |   Withdrawls.  |   GC.  |   Polka  |   Green  |   White  |   Summits. (In tour)  |   Miscellaneous.  |  

Stage 17 on 22 - 07 - 2015
         Owning:    Christopher Froome      Christopher Froome      Peter Sagan      Nairo Quintana  

Pick a stage:  1 2 3 4 5 6 7 8 9 10 11 12 13 14 15 16 17 18 19 20 21
  Digne-les-BainsPra-Loup | Dist: 161.00 km.
Cat: 3Col des LèquesPOLRafal Majka2 points 
Cat: 3Col de Toutes AuresERIDaniel Teklehaimanot1 points 
Cat: 2Col de la Colle-Saint-MichelBELSerge Pauwels5 points 
Cat: 1Col d'AllosGERSimon Geschke10 points 
Cat: 2Pra LoupGERSimon Geschke10 points 

Average speed for all riders in stage:  35,481 km./hr.
    Place:Name:Team:Time:Km/h:
1
GERSimon GeschkeDEUTeam Giant Alpecin04:12:17  +  00:00:00=38,290 
2
USAAndrew TalanskyUSATeam Cannondale - Garmin04:12:49  +  00:00:32=38,210 
3
COLRigoberto UránBELEtixx - Quick Step04:13:18  +  00:01:01=38,137 
44 FRAThibaut PinotFRAFDJ04:13:53  +  00:01:36=38,049 
55 SUIMathias FrankCHEIAM Cycling04:13:57  +  00:01:40=38,039 
66 NEDSteven KruijswijkNLDTeam Lotto NL - Jumbo04:14:44  +  00:02:27=37,922 
77 FRANicolas RocheGBRSky Procycling04:15:19  +  00:03:02=37,835 
88 ESPJonathan CastroviejoESPMovistar Team04:15:21  +  00:03:04=37,830 
99 BELSerge PauwelsZAFMTN - Qhubeka P/B Samsung04:15:22  +  00:03:05=37,828 
1010 ENGAdam YatesAUSOrica - GreenEDGE04:15:38  +  00:03:21=37,788 
1111 BELJan BakelantsFRAAg2r La Mondiale04:16:43  +  00:04:26=37,629 
1212 ERIDaniel TeklehaimanotZAFMTN - Qhubeka P/B Samsung04:17:07  +  00:04:50=37,570 
1313 POLRafal MajkaRUSTinkoff Saxo04:17:11  +  00:04:54=37,561 
1414 ERIMerhawi GhebremedhinZAFMTN - Qhubeka P/B Samsung04:18:12  +  00:05:55=37,413 
1515 CANRyder HesjedalUSATeam Cannondale - Garmin04:18:15  +  00:05:58=37,406 
1616 FRAMickaël CherelFRAAg2r La Mondiale04:18:23  +  00:06:06=37,386 
1717 FRAPerrig QuemeneurFRATeam Europcar04:19:12  +  00:06:55=37,269 
1818 COLNairo QuintanaESPMovistar Team04:19:33  +  00:07:16=37,218 
1919 ESPRafael Valls FerriITALampre-Merida04:19:33  +  00:07:16=37,218 
2020 KENChristopher FroomeGBRSky Procycling04:19:33  +  00:07:16=37,218 
2121 ESPAlejandro ValverdeESPMovistar Team04:19:40  +  00:07:23=37,202 
2122 CZERoman KreuzigerRUSTinkoff Saxo04:24:33  +  00:12:16=36,515 
2223 ITAVincenzo NibaliKAZAstana Pro Team04:19:48  +  00:07:31=37,182 
2324 URSTanel KangertKAZAstana Pro Team04:20:09  +  00:07:52=37,132 
2425 WALGeraint ThomasGBRSky Procycling04:20:35  +  00:08:18=37,071 
2526 NEDRobert GesinkNLDTeam Lotto NL - Jumbo04:20:49  +  00:08:32=37,038 
2627 CZEJan BártaDEUBora-Argon 1804:21:04  +  00:08:47=37,002 
2728 FRABrice FeilluFRABretagne - Séché Environnement04:21:29  +  00:09:12=36,943 
2829 AUSRichie PorteGBRSky Procycling04:21:29  +  00:09:12=36,943 
2930 ESPGorka Izaguirre InsaustiESPMovistar Team04:21:38  +  00:09:21=36,922 
3031 FRAWarren BarguilDEUTeam Giant Alpecin04:21:38  +  00:09:21=36,922 
3132 ESPAlberto ContadorRUSTinkoff Saxo04:21:50  +  00:09:33=36,894 
3233 ESPSamuel SanchezUSABMC Racing Team04:22:07  +  00:09:50=36,854 
3334 FRAPierre RollandFRATeam Europcar04:22:15  +  00:09:58=36,835 
3435 LUXBob JungelsUSATrek Factory Racing04:22:27  +  00:10:10=36,807 
3536 NEDBauke MollemaUSATrek Factory Racing04:22:27  +  00:10:10=36,807 
3637 FRARomain BardetFRAAg2r La Mondiale04:22:27  +  00:10:10=36,807 
3738 ESPJosé Herrada LópezESPMovistar Team04:23:17  +  00:11:00=36,691 
3839 COLJarlinson Pantano GomezCHEIAM Cycling04:23:43  +  00:11:26=36,630 
3940 RSAJacques Janse Van RensburgZAFMTN - Qhubeka P/B Samsung04:23:43  +  00:11:26=36,630 
4041 FRARomain SicardFRATeam Europcar04:24:28  +  00:12:11=36,526 
4242 NEDWout PoelsGBRSky Procycling04:24:44  +  00:12:27=36,490 
4343 ITAMichele ScarponiKAZAstana Pro Team04:24:57  +  00:12:40=36,460 
4444 FRANicolas EdetFRACofidis – Solutions Crédits04:25:24  +  00:13:07=36,398 
4545 FRAAlexis VuillermozFRAAg2r La Mondiale04:25:35  +  00:13:18=36,373 
4646 AUSMichael RogersRUSTinkoff Saxo04:25:35  +  00:13:18=36,373 
4747 FRAChristophe RiblonFRAAg2r La Mondiale04:26:59  +  00:14:42=36,182 
4848 NEDStef ClementCHEIAM Cycling04:27:13  +  00:14:56=36,150 
4949 ESPDaniel NavarroFRACofidis – Solutions Crédits04:27:13  +  00:14:56=36,150 
5050 ESPRubén PlazaITALampre-Merida04:27:43  +  00:15:26=36,083 
5151 ESPAlberto LosadaRUSTeam Katusha04:27:43  +  00:15:26=36,083 
5252 ITAAdriano MaloriESPMovistar Team04:27:43  +  00:15:26=36,083 
5353 HRVKristijan DurasekITALampre-Merida04:27:43  +  00:15:26=36,083 
5454 FRATony GallopinBELLotto Soudal04:27:43  +  00:15:26=36,083 
5555 PORNelson OliveiraITALampre-Merida04:27:57  +  00:15:40=36,052 
5656 DENLars BakBELLotto Soudal04:28:04  +  00:15:47=36,036 
5757 SUIMichael SchärUSABMC Racing Team04:28:30  +  00:16:13=35,978 
5858 ITADamiano CarusoUSABMC Racing Team04:30:04  +  00:17:47=35,769 
5959 SUIJakob FuglsangKAZAstana Pro Team04:30:04  +  00:17:47=35,769 
6060 GEREmanuel BuchmannDEUBora-Argon 1804:30:20  +  00:18:03=35,734 
6161 AUSAdam HansenBELLotto Soudal04:30:20  +  00:18:03=35,734 
6262 SUIMarcel WyssCHEIAM Cycling04:30:20  +  00:18:03=35,734 
6363 BELThomas De GendtBELLotto Soudal04:33:22  +  00:21:05=35,337 
6464 NEDBram TankinkNLDTeam Lotto NL - Jumbo04:33:22  +  00:21:05=35,337 
6565 FRAPierrick FédrigoFRABretagne - Séché Environnement04:33:22  +  00:21:05=35,337 
6666 ESPHaimar ZubeldiaUSATrek Factory Racing04:33:22  +  00:21:05=35,337 
6767 FRACyril GautierFRATeam Europcar04:33:22  +  00:21:05=35,337 
6868 FRAFlorian VachonFRABretagne - Séché Environnement04:33:22  +  00:21:05=35,337 
6969 SUIMartin ElmigerCHEIAM Cycling04:33:22  +  00:21:05=35,337 
7070 NEDDylan Van BaarleUSATeam Cannondale - Garmin04:33:22  +  00:21:05=35,337 
7171 FRAMatthieu LadagnousFRAFDJ04:33:22  +  00:21:05=35,337 
7272 GERPaul MartensNLDTeam Lotto NL - Jumbo04:33:22  +  00:21:05=35,337 
7373 UKRAndriy GrivkoKAZAstana Pro Team04:33:22  +  00:21:05=35,337 
7474 SUIReto HollensteinCHEIAM Cycling04:33:22  +  00:21:05=35,337 
7575 GERJohn DegenkolbDEUTeam Giant Alpecin04:33:22  +  00:21:05=35,337 
7676 COLWinner AnaconaESPMovistar Team04:33:22  +  00:21:05=35,337 
7777 NEDAlbert TimmerDEUTeam Giant Alpecin04:33:22  +  00:21:05=35,337 
7878 AUTGeorg PreidlerDEUTeam Giant Alpecin04:33:22  +  00:21:05=35,337 
7979 SUIGregory RastUSATrek Factory Racing04:33:22  +  00:21:05=35,337 
8080 COLJulián ArredondoUSATrek Factory Racing04:33:22  +  00:21:05=35,337 
8181 NEDKoen De KortDEUTeam Giant Alpecin04:33:22  +  00:21:05=35,337 
8282 ENGDaniel MartinUSATeam Cannondale - Garmin04:33:22  +  00:21:05=35,337 
8383 SUIDanilo WyssUSABMC Racing Team04:33:22  +  00:21:05=35,337 
8484 ESPImanol ErvitiESPMovistar Team04:33:22  +  00:21:05=35,337 
8585 PORTiago PintoRUSTeam Katusha04:33:22  +  00:21:05=35,337 
8686 ITAMatteo TosattoRUSTinkoff Saxo04:33:22  +  00:21:05=35,337 
8787 ESPJoaquim RodriguezRUSTeam Katusha04:33:22  +  00:21:05=35,337 
8888 FRAJérémy RoyFRAFDJ04:33:22  +  00:21:05=35,337 
8989 NEDLieuwe WestraKAZAstana Pro Team04:33:22  +  00:21:05=35,337 
9090 FRAAngelo TulikFRATeam Europcar04:33:22  +  00:21:05=35,337 
9191 SVKPeter SaganRUSTinkoff Saxo04:33:22  +  00:21:05=35,337 
9292 CZELeopold KönigGBRSky Procycling04:33:49  +  00:21:32=35,279 
9393 SLOKristjan KorenUSATeam Cannondale - Garmin04:34:30  +  00:22:13=35,191 
9494 ITAGiampaolo CarusoRUSTeam Katusha04:34:30  +  00:22:13=35,191 
9595 FRAJean-Christophe PeraudFRAAg2r La Mondiale04:34:30  +  00:22:13=35,191 
9696 ESPLuis Angel MateFRACofidis – Solutions Crédits04:34:30  +  00:22:13=35,191 
9797 ITAMatteo BonoITALampre-Merida04:34:30  +  00:22:13=35,191 
9898 AUSRohan DennisUSABMC Racing Team04:34:30  +  00:22:13=35,191 
9999 DENMichael ValgrenRUSTinkoff Saxo04:34:30  +  00:22:13=35,191 
100100 NEDRoy CurversDEUTeam Giant Alpecin04:34:30  +  00:22:13=35,191 
101101 ITADaniel OssUSABMC Racing Team04:36:03  +  00:23:46=34,994 
102102 FRABenoit VaugrenardFRAFDJ04:36:51  +  00:24:34=34,893 
103103 ESPMarkel IrizarUSATrek Factory Racing04:37:46  +  00:25:29=34,777 
104104 FRABryan NauleauFRATeam Europcar04:37:46  +  00:25:29=34,777 
105105 RSAReinardt Janse Van RensburgZAFMTN - Qhubeka P/B Samsung04:37:46  +  00:25:29=34,777 
106106 WALLuke RoweGBRSky Procycling04:37:46  +  00:25:29=34,777 
107107 FRADamien GaudinFRAAg2r La Mondiale04:37:46  +  00:25:29=34,777 
108108 KAZDmitriy GruzdevKAZAstana Pro Team04:38:25  +  00:26:08=34,696 
109109 FRAAnthony DelaplaceFRABretagne - Séché Environnement04:39:52  +  00:27:35=34,516 
110110 FRAArmindo FonsecaFRABretagne - Séché Environnement04:39:52  +  00:27:35=34,516 
111111 FRAThomas VoecklerFRATeam Europcar04:39:52  +  00:27:35=34,516 
112112 FRAJulien SimonFRACofidis – Solutions Crédits04:39:52  +  00:27:35=34,516 
113113 FRAYohann GèneFRATeam Europcar04:39:52  +  00:27:35=34,516 
114114 FRAFrédéric BrunFRABretagne - Séché Environnement04:39:52  +  00:27:35=34,516 
115115 FRAPierre-Luc PérichonFRABretagne - Séché Environnement04:39:52  +  00:27:35=34,516 
116116 FRASylvain ChavanelCHEIAM Cycling04:42:11  +  00:29:54=34,233 
117117 ITAFilippo PozzatoITALampre-Merida04:42:11  +  00:29:54=34,233 
118118 CZEZdenek StybarBELEtixx - Quick Step04:42:11  +  00:29:54=34,233 
119119 ITAMatteo TrentinBELEtixx - Quick Step04:42:11  +  00:29:54=34,233 
120120 AUSMichael MatthewsAUSOrica - GreenEDGE04:42:11  +  00:29:54=34,233 
121121 FRAAlexandre GeniezFRAFDJ04:42:11  +  00:29:54=34,233 
122122 COLJosé SerpaITALampre-Merida04:42:11  +  00:29:54=34,233 
123123 ITADavide CimolaiITALampre-Merida04:42:11  +  00:29:54=34,233 
124124 FRAFlorian SénéchalFRACofidis – Solutions Crédits04:42:11  +  00:29:54=34,233 
125125 BELKenneth VanbilsenFRACofidis – Solutions Crédits04:42:11  +  00:29:54=34,233 
126126 FRAGeoffrey SoupeFRACofidis – Solutions Crédits04:42:11  +  00:29:54=34,233 
127127 BELStijn DevolderUSATrek Factory Racing04:42:11  +  00:29:54=34,233 
128128 FRASébastien ChavanelFRAFDJ04:42:11  +  00:29:54=34,233 
129129 USATyler FarrarZAFMTN - Qhubeka P/B Samsung04:42:11  +  00:29:54=34,233 
130130 FRAArnaud GérardFRABretagne - Séché Environnement04:42:11  +  00:29:54=34,233 
131131 GERPaul VossDEUBora-Argon 1804:42:11  +  00:29:54=34,233 
132132 IOMMark CavendishBELEtixx - Quick Step04:42:11  +  00:29:54=34,233 
133133 FRABryan CoquardFRATeam Europcar04:42:11  +  00:29:54=34,233 
134134 POLMichal GolasBELEtixx - Quick Step04:42:11  +  00:29:54=34,233 
135135 PORJosé João PimentaDEUBora-Argon 1804:42:11  +  00:29:54=34,233 
136136 AUSMark RenshawBELEtixx - Quick Step04:42:11  +  00:29:54=34,233 
137137 NEDWilco KeldermanNLDTeam Lotto NL - Jumbo04:42:11  +  00:29:54=34,233 
138138 POLBartosz HuzarskiDEUBora-Argon 1804:42:11  +  00:29:54=34,233 
139139 BELJens DebusschereBELLotto Soudal04:42:11  +  00:29:54=34,233 
140140 URSRamunas NavardauskasUSATeam Cannondale - Garmin04:42:11  +  00:29:54=34,233 
141141 BELSep VanmarckeNLDTeam Lotto NL - Jumbo04:42:11  +  00:29:54=34,233 
142142 AUSLuke DurbridgeAUSOrica - GreenEDGE04:42:11  +  00:29:54=34,233 
143143 NEDTom LeezerNLDTeam Lotto NL - Jumbo04:42:11  +  00:29:54=34,233 
144144 ITAManuel QuinziatoUSABMC Racing Team04:42:11  +  00:29:54=34,233 
145145 FRAChristophe LaporteFRACofidis – Solutions Crédits04:42:11  +  00:29:54=34,233 
146146 ITAJacopo GuarnieriRUSTeam Katusha04:42:11  +  00:29:54=34,233 
147147 BELJulien VermoteBELEtixx - Quick Step04:42:11  +  00:29:54=34,233 
148148 NEDJos Van EmdenNLDTeam Lotto NL - Jumbo04:42:11  +  00:29:54=34,233 
149149 GERAndré GreipelBELLotto Soudal04:42:11  +  00:29:54=34,233 
150150 AUTMatthias BrändleCHEIAM Cycling04:42:11  +  00:29:54=34,233 
151151 GERMarcel SiebergBELLotto Soudal04:42:11  +  00:29:54=34,233 
152152 AUTMarco HallerRUSTeam Katusha04:42:11  +  00:29:54=34,233 
153153 FRAArnaud DémareFRAFDJ04:42:11  +  00:29:54=34,233 
154154 NOREdvald Boasson HagenZAFMTN - Qhubeka P/B Samsung04:42:11  +  00:29:54=34,233 
155155 ENGSimon YatesAUSOrica - GreenEDGE04:42:11  +  00:29:54=34,233 
156156 NORAlexander KristoffRUSTeam Katusha04:42:11  +  00:29:54=34,233 
157157 CANSvein TuftAUSOrica - GreenEDGE04:42:11  +  00:29:54=34,233 
158158 NEDLaurens ten DamNLDTeam Lotto NL - Jumbo04:42:11  +  00:29:54=34,233 
159159 ENGStephen CummingsZAFMTN - Qhubeka P/B Samsung04:42:11  +  00:29:54=34,233 
160160 BELTim WellensBELLotto Soudal04:42:11  +  00:29:54=34,233 
161161 NEDPieter WeeningAUSOrica - GreenEDGE04:42:11  +  00:29:54=34,233 
162162 ENGIan StannardGBRSky Procycling04:42:11  +  00:29:54=34,233 
163163 RSALouis MeintjesZAFMTN - Qhubeka P/B Samsung04:49:26  +  00:37:09=33,376 

Withdrawls: 6
 
Rider
Team
Reason
61  USATejay Van GarderenUSABMC Racing TeamDid not finish
111  POLMichal KwiatkowskiBELEtixx - Quick StepDid not finish
145  LUXLaurent DidierUSATrek Factory RacingDid not start
163  AUSNathan HaasUSATeam Cannondale - GarminDid not finish
185  FRAJérôme CoppelCHEIAM CyclingDid not finish
193  BELSam BennettDEUBora-Argon 18Did not finish
Todays birthdays.

1878  Jean Novo
1883  Jules Chabas
1890  Ange Aubry
1893  Roger Marye
1913  Paul Maye
1914  Lucien Vlaemynck
1915  Alphonse Antoine
1932  Rolf Graf
1953  Julio Rubiano
1959  Jos Haex
1959  Gerard Veldscholten
1963  Pablo Moreno
1964  Juan Castillo
1977  Iban Mayo
1994  Fernando Gaviria